This demonstration page uses our WeatherBlox Daily Observations layout. Learn more.

Left ArrowRight Arrow

Hourly Observations for July 25, 2021

Temp ( °F °C ) Dew Point ( °F °C ) Humidity (%) Winds ( mph kmh ) Pressure ( in mb ) Visibility ( mi km ) Precip ( " mm )
12:53 am 00:53 Clear 78 25.6 71 21.7 79 79 N N/A 29.92 1013 9 14 N/A
1:53 am 01:53 Mostly Cloudy 79 26.1 72 22.2 79 79 VRB 5 7 29.92 1013 8 13 N/A
2:53 am 02:53 Cloudy 78 25.6 72 22.2 82 82 VRB 5 7 29.90 1013 8 13 N/A
3:53 am 03:53 Mostly Cloudy with Light Rain 77 25 73 22.8 88 88 VRB 3 6 29.89 1012 8 13 0.00 0.00
4:53 am 04:53 Cloudy 76 24.4 73 22.8 91 91 VRB 3 6 29.92 1013 7 11 0.00 0.00
5:21 am 05:21 Mostly Cloudy 76 24.4 73 22.8 91 91 W 3 6 29.92 1013 7 11 N/A
5:28 am 05:28 Mostly Cloudy 76 24.4 73 22.8 91 91 VRB 3 6 29.92 1013 7 11 N/A
5:35 am 05:35 Mostly Cloudy 76 24.4 73 22.8 91 91 W 3 6 29.92 1013 7 11 N/A
5:46 am 05:46 Mostly Clear with Mist and Fog 75 23.9 73 22.8 94 94 N N/A 29.91 1013 6 10 N/A
5:53 am 05:53 Mostly Cloudy with Mist and Fog 75 23.9 73 22.8 94 94 N N/A 29.92 1013 6 10 N/A
6:24 am 06:24 Partly Cloudy with Mist and Fog 74 23.3 73 22.8 97 97 N N/A 29.91 1013 4 6 N/A
6:53 am 06:53 Mostly Cloudy with Mist and Fog 74 23.3 73 22.8 97 97 N N/A 29.92 1013 3 5 N/A
7:53 am 07:53 Cloudy with Mist and Fog 76 24.4 74 23.3 94 94 N N/A 29.93 1014 4 6 N/A
8:53 am 08:53 Partly Cloudy with Mist and Fog 78 25.6 75 23.9 90 90 VRB 5 7 29.95 1014 5 8 N/A
9:53 am 09:53 Mostly Sunny 80 26.7 74 23.3 82 82 WNW 6 9 29.95 1014 8 13 N/A
10:53 am 10:53 Mostly Cloudy 83 28.3 75 23.9 77 77 VRB 6 9 29.94 1014 10 16 N/A
11:53 am 11:53 Partly Cloudy 84 28.9 76 24.4 77 77 WNW 5 7 29.94 1014 10 16 N/A
12:38 pm 12:38 Mostly Cloudy 85 29.4 76 24.4 75 75 VRB 6 9 29.93 1013 10 16 N/A
12:53 pm 12:53 Mostly Cloudy 85 29.4 76 24.4 75 75 N N/A 29.94 1014 10 16 N/A
1:10 pm 13:10 Mostly Cloudy 86 30 76 24.4 72 72 VRB 7 11 29.92 1013 10 16 N/A
1:38 pm 13:38 Mostly Cloudy 85 29.4 76 24.4 75 75 VRB 5 7 29.92 1013 10 16 N/A
1:53 pm 13:53 Mostly Cloudy 88 31.1 77 25 70 70 VRB 6 9 29.93 1014 10 16 N/A
2:02 pm 14:02 Partly Cloudy 87 30.6 76 24.4 70 70 SW 5 7 29.91 1013 10 16 N/A
2:53 pm 14:53 Mostly Sunny 88 31.1 76 24.4 68 68 VRB 6 9 29.93 1014 10 16 N/A
3:53 pm 15:53 Mostly Sunny 89 31.7 76 24.4 65 65 WNW 8 13 29.92 1013 10 16 N/A
4:53 pm 16:53 Partly Cloudy 89 31.7 77 25 68 68 VRB 6 9 29.90 1013 10 16 N/A
5:53 pm 17:53 Mostly Sunny 89 31.7 75 23.9 63 63 W 6 9 29.89 1012 10 16 N/A
6:53 pm 18:53 Mostly Cloudy 87 30.6 75 23.9 67 67 N 7 11 29.89 1012 10 16 N/A
7:53 pm 19:53 Mostly Cloudy 81 27.2 76 24.4 85 85 N N/A 29.90 1013 10 16 N/A
8:53 pm 20:53 Mostly Sunny 78 25.6 75 23.9 90 90 N N/A 29.92 1013 10 16 N/A
9:53 pm 21:53 Mostly Clear 75 23.9 73 22.8 94 94 N N/A 29.93 1013 10 16 N/A
10:53 pm 22:53 Clear 74 23.3 73 22.8 97 97 N N/A 29.93 1014 10 16 N/A
11:53 pm 23:53 Partly Cloudy 73 22.8 72 22.2 96 96 N N/A 29.94 1014 10 16 N/A

Powered by AerisWeather